Weather History for Hobbs, NM

Change the Weather History Date:

Saturday, December 8, 2012

  Actual Average Record
Temperature  
Mean Temperature 52 °F -  
Max Temperature 68 °F 56 °F 75 °F (2003)
Min Temperature 37 °F 30 °F 5 °F (2005)
Degree Days  
Heating Degree Days 12    
Growing Degree Days 2 (Base 50)    
Moisture  
Dew Point 24 °F    
Average Humidity 39    
Maximum Humidity 60    
Minimum Humidity 20    
Precipitation  
Precipitation 0.00 in - - ()
Sea Level Pressure  
Sea Level Pressure 29.86 in    
Wind  
Wind Speed 4 mph (SW)    
Max Wind Speed 22 mph    
Max Gust Speed 28 mph    
Visibility 10 miles    
Events      
Averages and records for this station are not official NWS values.
T = Trace of Precipitation, MM = Missing Value Source: NWS Daily Summary

Daily Weather History Graph

Daily Weather History Graph

Search for Another Location

Airport:

Trip Planner

Search our weather history database for the weather conditions in past years. The results will help you decide how hot, cold, wet, or windy it might be!

Date:

Astronomy

Dec. 08, 2012 Rise Set
Actual Time 6:43 AM MST 4:46 PM MST
Civil Twilight 6:15 AM MST 5:14 PM MST
Nautical Twilight 5:45 AM MST 5:44 PM MST
Astronomical Twilight 5:15 AM MST 6:14 PM MST
Moon 1:24 AM MST (12/8) 1:06 PM MST (12/8)
Length of Visible Light 10h 58m
Length of Day
10h 03m
Waning Crescent, 27% of the Moon is Illuminated
Dec 8
Waning Crescent
Dec 13
New
Dec 19
First Quarter
Dec 28
Full
Jan 4
Last Quarter

Hourly Weather History & Observations

Time (MST) Temp. Windchill Dew Point Humidity Pressure Visibility Wind Dir Wind Speed Gust Speed Precip Events Conditions
12:15 AM 37.4 °F - 21.2 °F 52% 29.89 in 10.0 mi Calm Calm - N/A   Clear
12:35 AM 37.4 °F - 21.2 °F 52% 29.89 in 10.0 mi Calm Calm - N/A   Clear
12:55 AM 39.2 °F - 23.0 °F 52% 29.88 in 10.0 mi Calm Calm - N/A   Clear
1:15 AM 39.2 °F - 23.0 °F 52% 29.88 in 10.0 mi Calm Calm - N/A   Clear
1:35 AM 42.8 °F - 23.0 °F 46% 29.89 in 10.0 mi Calm Calm - N/A   Clear
1:55 AM 44.6 °F - 24.8 °F 46% 29.88 in 10.0 mi Calm Calm - N/A   Clear
2:15 AM 44.6 °F - 24.8 °F 46% 29.89 in 10.0 mi Calm Calm - N/A   Clear
2:35 AM 39.2 °F - 23.0 °F 52% 29.89 in 10.0 mi Calm Calm - N/A   Clear
2:55 AM 44.6 °F - 24.8 °F 46% 29.88 in 10.0 mi Calm Calm - N/A   Clear
3:15 AM 41.0 °F - 24.8 °F 53% 29.89 in 10.0 mi Calm Calm - N/A   Clear
3:35 AM 41.0 °F - 24.8 °F 53% 29.89 in 10.0 mi Calm Calm - N/A   Clear
3:55 AM 39.2 °F - 24.8 °F 56% 29.89 in 10.0 mi Calm Calm - N/A   Clear
5:50 AM 37.4 °F - 24.8 °F 60% 29.91 in 10.0 mi Calm Calm - N/A   Clear
6:50 AM 39.2 °F - 24.8 °F 56% 29.91 in 10.0 mi Calm Calm - N/A   Clear
7:50 AM 46.4 °F - 26.6 °F 46% 29.93 in 10.0 mi Calm Calm - N/A   Clear
8:50 AM 50.0 °F - 24.8 °F 37% 29.94 in 10.0 mi Calm Calm - N/A   Clear
9:50 AM 57.2 °F - 26.6 °F 31% 29.93 in 10.0 mi Calm Calm - N/A   Clear
10:50 AM 62.6 °F - 26.6 °F 26% 29.92 in 10.0 mi Calm Calm - N/A   Clear
11:50 AM 66.2 °F - 26.6 °F 23% 29.87 in 10.0 mi SSW 18.4 mph 25.3 mph N/A   Clear
12:50 PM 68.0 °F - 26.6 °F 21% 29.83 in 10.0 mi SSW 21.9 mph 25.3 mph N/A   Clear
1:50 PM 68.0 °F - 26.6 °F 21% 29.81 in 10.0 mi SSW 19.6 mph 27.6 mph N/A   Clear
2:50 PM 68.0 °F - 24.8 °F 20% 29.80 in 10.0 mi SW 20.7 mph 26.5 mph N/A   Clear
3:50 PM 66.2 °F - 24.8 °F 21% 29.80 in 10.0 mi SW 18.4 mph 25.3 mph N/A   Clear
4:50 PM 62.6 °F - 23.0 °F 22% 29.81 in 10.0 mi SW 12.7 mph - N/A   Clear
5:15 PM 59.0 °F - 23.0 °F 25% 29.81 in 10.0 mi SW 11.5 mph - N/A   Clear
5:50 PM 57.2 °F - 23.0 °F 27% 29.83 in 10.0 mi SW 11.5 mph - N/A   Clear
5:55 PM 57.2 °F - 23.0 °F 27% 29.83 in 10.0 mi SW 11.5 mph - N/A   Clear
6:15 PM 55.4 °F - 21.2 °F 26% 29.83 in 10.0 mi SW 10.4 mph - N/A   Clear
6:35 PM 53.6 °F - 21.2 °F 28% 29.84 in 10.0 mi Calm Calm - N/A   Clear
6:55 PM 53.6 °F - 21.2 °F 28% 29.85 in 10.0 mi SSW 4.6 mph - N/A   Clear
7:15 PM 50.0 °F - 21.2 °F 32% 29.85 in 10.0 mi SSW 5.8 mph - N/A   Clear
7:35 PM 53.6 °F - 23.0 °F 30% 29.84 in 10.0 mi SSW 6.9 mph - N/A   Clear
7:55 PM 53.6 °F - 23.0 °F 30% 29.84 in 10.0 mi SSW 10.4 mph - N/A   Clear
8:15 PM 51.8 °F - 23.0 °F 33% 29.85 in 10.0 mi SSW 9.2 mph - N/A   Clear
8:35 PM 50.0 °F - 23.0 °F 35% 29.85 in 10.0 mi SW 10.4 mph - N/A   Clear
8:55 PM 48.2 °F - 23.0 °F 37% 29.86 in 10.0 mi SSW 5.8 mph - N/A   Clear
9:15 PM 46.4 °F 41.9 °F 23.0 °F 40% 29.86 in 10.0 mi SSW 9.2 mph - N/A   Clear
9:35 PM 44.6 °F 39.7 °F 23.0 °F 43% 29.86 in 10.0 mi SW 9.2 mph - N/A   Clear
10:15 PM 42.8 °F 38.0 °F 23.0 °F 46% 29.86 in 10.0 mi SW 8.1 mph - N/A   Clear
10:35 PM 44.6 °F - 23.0 °F 43% 29.86 in 10.0 mi Calm Calm - N/A   Clear
10:55 PM 44.6 °F 40.2 °F 23.0 °F 43% 29.86 in 10.0 mi SW 8.1 mph - N/A   Clear
11:15 PM 44.6 °F 40.2 °F 24.8 °F 46% 29.85 in 10.0 mi SW 8.1 mph - N/A   Clear
11:35 PM 41.0 °F - 23.0 °F 49% 29.85 in 10.0 mi Calm Calm - N/A   Clear
11:55 PM 39.2 °F 33.0 °F 23.0 °F 52% 29.85 in 10.0 mi WSW 9.2 mph - N/A   Clear